Regional Weather Roundup
Issued by NWS Pendleton, OR

Home | Current Version | Previous Version | Text Only | Print | Product List | Glossary On
Versions: 1 2 3 4 5 6 7 8 9 10 11 12 13 14 15 16 17 18 19 20 21 22 23 24 25 26 27 28 29 30 31 32 33 34 35 36 37 38 39 40 41 42 43 44 45 46 47 48 49 50
000
ASUS46 KPDT 280204
RWRPDT
PENDLETON REGIONAL WEATHER ROUNDUP
NATIONAL WEATHER SERVICE PENDLETON OREGON
600 PM PST TUE JAN 27 2015

NOTE: FAIR INDICATES FEW OR NO CLOUDS BELOW 12,000 FEET WITH NO
SIGNIFICANT WEATHER AND/OR OBSTRUCTIONS TO VISIBILITY.

# INDICATES UNOFFICIAL STATION AND DATA

WAZ520-280310-
EAST SLOPES OF WASHINGTON CASCADES

CITY            SKY/WX      TMP DP  RH  WIND    PRES   REMARKS
#BULLFROG       N/A         48  42  80  W6      N/A
#BULLFROG 2SW   N/A         48  46  93  CALM    27.67R
#BUMPING DAM    N/A         43  N/A N/A S2      N/A
#CLE ELUM HS    N/A         48  40  74  W7      30.01R
#CLE ELUM LAKE  N/A         46  38  73  CALM    30.07R
#CLIFFDEL 2NW   N/A         45  40  82  W1      N/A
#EASTON DOT     N/A         45  42  89  N1      N/A
#ELK HTS DOT    N/A         47  47  100 W7      N/A
#GLENWOOD       N/A         46  42  86  S6      30.13R
#MANASTASH CYN  N/A         43  34  70  CALM    30.02R
#NELSON         N/A         47  44  89  CALM    30.14R
#NELSON 3SW     N/A         44  39  82  CALM    30.30R
#NILE           N/A         48  41  77  CALM    29.35R
#PEOH POINT     N/A         39  39  100 W5      N/A
#RONALD 2NW     N/A         46  36  68  W2      29.93R
#SNOWDEN        N/A         43  35  73  CALM    N/A
#TROUT LAKE 1NE N/A         48  42  80  CALM    30.14R
$$

WAZ521-280310-
SIMCOE HIGHLANDS

CITY            SKY/WX      TMP DP  RH  WIND    PRES   REMARKS
#BICKLETON HS   N/A         42  35  76  CALM    N/A
#SATUS PASS DOT N/A         43  38  82  NW7     N/A
#CENTERVILLE 4W N/A         47  43  86  NW18    29.83R WCI 40
#CENTERVILLE 1SWN/A         47  42  83  W16     30.09R WCI 41
#GOLDENDALE     N/A         47  43  86  W5      N/A
#GOLDENDALE 1NE N/A         47  38  71  CALM    N/A
#GOLDENDALE 1S  N/A         44  42  93  E10     30.06R
#GOLDENDALE 5WNWN/A         46  42  86  W8      30.13R
#GOODNOE HILLS  N/A         46  41  83  W6      N/A
#LYLE 6NE       N/A         48  44  86  W9      30.12R
$$

WAZ026-280310-
KITTITAS VALLEY

CITY            SKY/WX      TMP DP  RH  WIND    PRES   REMARKS
ELLENSBURG AP   CLOUDY      50  41  71  NW13    30.05R
#ELLENSBURG CWU N/A         50  43  77  N10     30.04R
#ELLENSBURG 3NE N/A         48  43  83  NW5     30.05R
#ELLENSBURG 1E  N/A         50  42  74  NW2     N/A
#KITTITAS 4N    N/A         48  42  80  NW14    28.36R WCI 42
#KITTITAS 3S    N/A         44  44  100 W5      30.08R
#MANASTASH RDG  N/A         46  46  100 NW13    N/A    WCI 40
#ROCKY CYN DOT  N/A         49  41  74  W13     N/A    WCI 44
#RYEGRASS DOT   N/A         44  39  82  W15     N/A    WCI 37
#THORP 6N       N/A         47  42  83  W15G29  30.10R WCI 41
$$

WAZ027-280310-
YAKIMA VALLEY

CITY            SKY/WX      TMP DP  RH  WIND    PRES   REMARKS
YAKIMA AIRPORT  CLOUDY      38  35  89  CALM    30.11R FOG
YAKIMA-VAGABOND CLOUDY      36  35  96  SE2     30.09R FOG
#DONALD 2NE     N/A         36  36  100 CALM    28.96R
#GRANDVIEW      N/A         36  35  96  CALM    30.15R
#MABTON         N/A         37  37  100 CALM    30.11R
#MOXEE 2E       N/A         38  38  100 SW2     30.07R
#NACHES 2SW     N/A         36  35  96  CALM    30.06R
#PARKER DOT     N/A         37  35  92  N1      N/A
#SELAH 8E       N/A         34  34  100 CALM    N/A
#TERRACE HTS    N/A         35  34  96  CALM    30.11R
#I82 S UMTANUM RN/A         35  33  92  W2      N/A
#UNION GAP DOT  N/A         38  36  92  S2      N/A
#WAPATO 4NE     N/A         36  36  100 CALM    28.96R
#WEST VALLEY    N/A         37  36  96  CALM    30.13R
#W YAKIMA       N/A         35  34  96  CALM    30.15R
#WHITE SWAN 5E  N/A         36  35  96  CALM    30.15R
#WILEY CITY 3W  N/A         35  32  89  CALM    30.08R
#ZILLAH DOT     N/A         36  36  100 CALM    N/A
$$

WAZ028-280310-
LOWER COLUMBIA BASIN...WASHINGTON

CITY            SKY/WX      TMP DP  RH  WIND    PRES   REMARKS
PASCO           CLOUDY      38  38  100 CALM    30.13R FOG
PROSSER AWOS    N/A         37  37  100 SW3     30.15
RICHLAND AWOS   CLOUDY      39  37  92  SE5     30.12R
#BASIN CITY 5SW N/A         37  36  96  S1      30.11R
#BENTON CITY    N/A         38  36  92  W6      30.04R
#CONNELL 5N     N/A         35  35  100 CALM    30.13R
#CONNELL 5NW    N/A         35  35  100 SW2     30.09R
#ELTOPIA 6NW    N/A         36  36  100 CALM    29.06R
#KAHLOTUS       N/A         35  35  100 W5      30.14R
#KENNEWICK      N/A         48  46  93  CALM    27.67R
#KENNEWICK 3S   N/A         36  35  96  CALM    30.14R
#PASCO-BROADMOORN/A         38  36  92  CALM    30.04R
#PATERSON       N/A         38  36  92  CALM    30.12R
#PROSSER DOT    N/A         38  37  96  W1      N/A
#PROSSER        N/A         36  34  92  CALM    30.14R
#SAGEMOOR 2W    N/A         36  35  96  CALM    29.98R
#TOUCHET 2S     N/A         37  35  92  NE1     30.13R
#WEST PASCO     N/A         39  37  92  CALM    30.08R
$$

WAZ029-280310-
FOOTHILLS OF THE BLUES...WASHINGTON

CITY            SKY/WX      TMP DP  RH  WIND    PRES   REMARKS
WALLA WALLA AP  CLOUDY      39  36  89  SE8     30.09R
#DAYTON SCHOOL  N/A         42  35  76  SW6     30.09R
#LOWDEN 2SE     N/A         37  35  92  CALM    30.08R
#PLEASANT VIEW 1N/A         35  34  96  CALM    30.17R
#PRESCOTT       N/A         39  38  96  CALM    30.12R
#SUDBURY        N/A         40  N/A N/A CALM    N/A
#WHITMAN COLLEGEN/A         38  36  92  W3      30.19R
#WAITSBURG 5S   N/A         36  35  96  S2      30.23R
#WAITSBURG 8N   N/A         37  30  75  S9      29.94R
#WALLA WALLA 5E N/A         38  37  96  SE2     N/A
#WALLA WALLA U  N/A         40  38  92  CALM    30.13R
#WHITMAN MISSIONN/A         38  36  92  CALM    30.14S
$$

WAZ030-280310-
BLUE MOUNTAINS...WASHINGTON

CITY            SKY/WX      TMP DP  RH  WIND    PRES   REMARKS
#SKI BLUEWOOD   N/A         41  32  70  S2      30.03S
$$

ORZ009-041-WAZ024-280310-
COLUMBIA RIVER GORGE

CITY            SKY/WX      TMP DP  RH  WIND    PRES   REMARKS
HOOD RIVER AP   CLOUDY      50  45  83  W9      30.14R
THE DALLES AP   PTCLDY      53  43  69  NW12    30.12R
#ARLINGTON AIRPON/A         38  37  96  E3      30.02S
#ARLINGTON HS   N/A         40  38  92  SW1     30.05R
#CELILO DOT     N/A         53  39  59  SW8     N/A
#LYLE           N/A         51  46  83  NW7     30.14R
#MARYHILL       N/A         51  43  74  CALM    N/A
#MOSIER 1S      N/A         49  41  74  CALM    30.15R
#MURDOCK        N/A         53  47  80  W8      30.15R
#RUFUS DOT      N/A         46  38  73  N7      N/A

$$

ORZ510-280310-
NORTH CENTRAL OREGON

CITY            SKY/WX      TMP DP  RH  WIND    PRES   REMARKS
#CHENOWITH 1W   N/A         45  43  93  NW23    N/A    WCI 36
#COW CYN RST AREN/A         47  35  63  W2      N/A
#DUFUR 9E       N/A         46  41  83  W10     30.16R
#GRASS VALLEY 1SN/A         45  40  82  W8      30.15R
#KENT DOT       N/A         44  34  68  W8      N/A
#MAUPIN SCHOOL  N/A         48  41  77  CALM    30.13R
#MORO SCHOOL    N/A         48  45  89  W13     30.09S WCI 43
#SHANIKO 5WSW   N/A         44  30  58  NW10    N/A
#SHANIKO 4NW    N/A         43  36  76  NW9     30.10R
#TYGH VALLEY 2NEN/A         46  42  86  CALM    30.15R
#WAPANITIA AIRPON/A         49  41  74  W3      30.17R
#WASCO 5NE      N/A         45  42  89  CALM    30.14R
$$

ORZ511-280310-
CENTRAL OREGON

CITY            SKY/WX      TMP DP  RH  WIND    PRES   REMARKS
BEND AIRPORT    CLOUDY      48  32  54  CALM    30.13R
MADRAS AIRPORT  N/A         48  37  65  CALM    30.14R
PRINEVILLE AP   CLOUDY      48  32  54  CALM    30.13R
REDMOND AIRPORT PTCLDY      48  34  58  CALM    30.12R
#BEND 1SW       N/A         47  33  58  W2      N/A
#BEND-AWBREY    N/A         50  35  56  NE2     30.10R
#BEND-KIM LN    N/A         50  31  48  CALM    30.08R
#CROOKED RVR RANN/A         50  37  61  W9      30.12R
#CULVER         N/A         50  37  61  SW2     30.08R
#LAKE BILLY CHINN/A         50  17  27  SW6     30.18R
#POWELL BUTTE 3EN/A         48  33  56  W3      N/A
#POWELL BUTTE   N/A         46  32  58  N1      29.75R
#PRINEVILLE 3N  N/A         49  35  58  W8      30.11R
#WARM SPRINGS   N/A         49  42  77  CALM    30.08R

$$


ORZ509-280310-
EAST SLOPES OF OREGON CASCADES

CITY            SKY/WX      TMP DP  RH  WIND    PRES   REMARKS
#BLUE BOX PASS  N/A         39  -11 11  CALM    N/A
#CAMP SHERMAN   N/A         46  37  71  CALM    30.23R
#LA PINE DOT    N/A         46  16  30  NW3     N/A
#LA PINE 4NW    N/A         46  29  51  CALM    30.26R
#LAVA BUTTE DOT N/A         45  22  40  CALM    N/A
#MT BACHELOR-MIDN/A         30  25  81  E24G35  N/A    WCI 16
#SISTERS AIRPOR N/A         47  41  79  VRB7    30.17S
#SISTERS ODOT   N/A         47  N/A N/A SW6     N/A
#SISTERS 3N     N/A         45  33  63  NW6     30.13R
#SUNRIVER       N/A         46  33  60  SW1     30.10R
#SUTTLE LK DOT  N/A         38  35  89  W31G40  N/A    WCI 26
#TUMALO 3W      N/A         48  33  56  E1      29.98R
#WANOGA BUTTE D N/A         38  27  64  NW9     N/A

$$

ORZ044-280310-
LOWER COLUMBIA BASIN...OREGON

CITY            SKY/WX      TMP DP  RH  WIND    PRES   REMARKS
HERMISTON       CLOUDY      38  36  92  E3      30.11R FOG
#BOARDMAN SCHOOLN/A         39  38  96  CALM    30.14R
#BOARDMAN 8SW   N/A         38  37  96  N3      30.13R
#ECHO 8SW       N/A         39  39  100 CALM    30.08R
#IONE SCHOOL    N/A         47  33  58  CALM    30.08R
#IRRIGON 4NW    N/A         40  40  100 CALM    N/A
#UMATILLA SCHOOLN/A         36  36  100 CALM    30.18R
#UMATILLA       N/A         40  36  85  E1      30.10R
$$

ORZ507-280310-
NORTHERN FOOTHILLS OF THE BLUES

CITY            SKY/WX      TMP DP  RH  WIND    PRES   REMARKS
PENDLETON AIRPT MOCLDY      43  38  82  W5      30.08R
#ADAMS 3WNW     N/A         40  37  89  CALM    30.14R
#ATHENA         N/A         48  40  74  W1      30.16R
#CAYUSE         N/A         46  41  83  CALM    30.12R
#HELIX SCHOOL   N/A         42  39  89  CALM    30.12R
#HELIX 3N       N/A         43  39  86  N7      30.04R
#HELIX 6SW      N/A         43  39  86  CALM    30.06S
#HOLDMAN 5SE    N/A         38  37  96  CALM    30.09R
#HOLDMAN 6E     N/A         41  39  93  CALM    29.95R
#M-F FERNDALE   N/A         38  37  96  CALM    30.09R
#M-F GROVE ELEM N/A         37  35  92  CALM    30.08R
#M-FREEWATER 5SEN/A         39  37  92  CALM    30.09R
#PENDLETON DNTN N/A         42  37  82  CALM    28.88S
#PDT AQUATIC CTRN/A         42  40  93  CALM    30.07S
#PENDLETON 5NE  N/A         40  38  92  CALM    30.04R
#PDT SUNRIDGE   N/A         40  38  92  CALM    30.10R
#PENDLETON 7NW  N/A         40  36  85  W1      25.87F
#TUTUILLA       N/A         39  37  92  CALM    30.12R
#UMAPINE 2E     N/A         37  35  92  CALM    30.07R
#WESTON SCHOOL  N/A         50  35  56  W9      30.08R

$$

ORZ508-280310-
SOUTHERN FOOTHILLS OF THE BLUES

CITY            SKY/WX      TMP DP  RH  WIND    PRES   REMARKS
LEXINGTON       CLOUDY      46  43  89  SE6     30.11R
#AJAX           N/A         49  35  58  SW7     30.03R
#CONDON SCHOOL  N/A         48  39  71  CALM    30.05R
#CONDON 5W      N/A         45  35  68  W12     30.06R WCI 39
#HEPPNER EOC    N/A         46  40  79  E1      30.07R
#HEPPNER 4NE    N/A         42  38  86  CALM    30.08R
#LEXINGTON 2SE  N/A         46  40  79  CALM    30.07R
#MIKKALO        N/A         48  41  77  W2      30.09R
#OLEX 4N        N/A         48  44  86  W8      30.09R
#RUGGS 5NE      N/A         43  38  82  SW3     30.27R
#RUGGS 2SW      N/A         44  38  79  SW6     30.10R

$$

ORZ502-503-280310-
BLUE MOUNTAINS

CITY            SKY/WX      TMP DP  RH  WIND    PRES   REMARKS
MEACHAM         MOCLDY      38  32  79  CALM    30.09R
#BATTLE MTN DOT N/A         42  38  86  CALM    N/A
#HARDMAN 10S    N/A         45  34  65  CALM    30.21R
#HEPPNER 15SE   N/A         45  33  63  CALM    29.99R
#LADD CYN SMT   N/A         38  31  76  E6      N/A
#LADD CREEK ODOTN/A         42  22  45  SW3     N/A
#LONG CREEK HS  N/A         42  40  93  CALM    30.06R
#N POWDER DOT   N/A         35  32  89  W3      N/A
#PIKES PEAK     N/A         45  33  63  SW15    27.99S WCI 38
#TOLLGATE       N/A         37  31  79  SW1     30.00R
#TROY SCHOOL    N/A         46  40  79  NW7     29.95R
#UKIAH          N/A         40  36  85  N1      30.19R
#WESTON 4E      N/A         45  35  68  S6      30.00R
$$

ORZ505-280310-
JOHN DAY BASIN

CITY            SKY/WX      TMP DP  RH  WIND    PRES   REMARKS
JOHN DAY        CLOUDY      46  37  71  CALM    30.11R
#JOHN DAY KJDY  N/A         44  44  100 CALM    30.15R
#DAYVILLE SCHOOLN/A         46  37  71  CALM    30.07R
#MITCHELL       N/A         46  40  79  CALM    30.24R
#MONUMENT HS    N/A         43  36  76  CALM    30.11R
#MT. VERNON 5SE N/A         44  36  73  CALM    30.06R
#WINLOCK        N/A         42  35  76  CALM    30.17R
$$

ORZ506-280310-
OCHOCO AND JOHN DAY HIGHLANDS

CITY            SKY/WX      TMP DP  RH  WIND    PRES   REMARKS
#BUCK CREEK DOT N/A         50  50  100 CALM    N/A
#HORSE RIDGE DO N/A         49  23  36  W5      N/A
#KEYES SMT DOT  N/A         45  32  60  CALM    N/A
#PAULINA SCHOOL N/A         44  34  68  CALM    30.07R
#PINE MTN OBS   N/A         40  25  55  NW5     N/A
#PRAIRIE CITY   N/A         39  33  79  CALM    30.19R
#SENECA         N/A         37  N/A N/A CALM    N/A
#SENECA 9NW     N/A         36  32  85  CALM    30.19R
$$

ORZ049-280310-
GRANDE RONDE VALLEY

CITY            SKY/WX      TMP DP  RH  WIND    PRES   REMARKS
LA GRANDE       PTCLDY      45  30  55  SE7     30.08R
#COVE           N/A         44  38  79  CALM    30.03S
#COVE SCHOOL    N/A         45  38  76  CALM    30.07R
#COVE 6NW       N/A         43  35  73  CALM    30.17R
#ELGIN 3N       N/A         46  32  58  CALM    29.89R
#ELGIN 1E       N/A         47  37  68  SE3     N/A
#IMBLER SCHOOL  N/A         43  36  76  CALM    30.04R
#ISLAND CITY 4N N/A         47  47  100 CALM    30.18R
#LADD CYN DOT   N/A         45  34  65  SE14    N/A    WCI 39
#UNION 1S       N/A         44  37  76  S6      30.05R
$$

ORZ050-280310-
WALLOWA COUNTY

CITY            SKY/WX      TMP DP  RH  WIND    PRES   REMARKS
#ENTERPRISE AP  N/A         38  33  82  CALM    30.01R
#ENTERPRISE HS  N/A         39  36  89  CALM    30.09R
#IMNAHA SCHOOL  N/A         48  40  74  S2      30.05R
#IMNAHA 10S     N/A         47  38  71  CALM    30.04R
#JOSEPH 3N      N/A         36  36  100 CALM    30.11R
#JOSEPH 3W      N/A         37  29  72  CALM    29.92R
#LOSTINE        N/A         34  32  92  CALM    30.01R
#MT HOWARD 8000 N/A         36  25  64  N3      30.11R
#PROMISE 1S     N/A         44  36  73  E7      30.21R
#SHEEP RDG 7000 N/A         37  25  61  CALM    29.94R
#WALLOWA SCHOOL N/A         35  34  96  CALM    31.18R



$$



USA.gov is the U.S. government's official web portal to all federal, state and local government web resources and services.